FDB539 OMDB-VNKT

Flight info

Callsign FDB539
Flight time N/A
Altitude 35000
Route ANVIX L223 KIPOK L313 TARDI N629 GIDAN N881 RASKI L639 LAXOM/N0467F370 L639 BPL G590 DOMET DCT BBN G590 SMR SMR
Aircraft B38M/M-SDE1FGHILORVWXY/HB1

Departure

Time 2026-05-08 05:09
Airport Dubai International Airport (OMDB)

Arrival

Time N/A
Airport Tribhuvan International Airport (VNKT)
Time Latitude Longitude Altitude Speed Heading
2026-05-08 05:04 25.25697 55.36819 25 ft 20 kts 120°
2026-05-08 05:04 25.25620 55.36951 27 ft 21 kts 125°
2026-05-08 05:04 25.25537 55.37086 28 ft 22 kts 121°
2026-05-08 05:04 25.25459 55.37231 27 ft 22 kts 121°
2026-05-08 05:05 25.25373 55.37375 28 ft 23 kts 124°
2026-05-08 05:05 25.25288 55.37526 27 ft 23 kts 119°
2026-05-08 05:05 25.25201 55.37682 26 ft 24 kts 123°
2026-05-08 05:05 25.25112 55.37840 26 ft 25 kts 122°
2026-05-08 05:06 25.25031 55.37985 27 ft 20 kts 121°
2026-05-08 05:06 25.24964 55.38099 28 ft 10 kts 135°
2026-05-08 05:06 25.24918 55.38117 26 ft 7 kts 187°
2026-05-08 05:06 25.24882 55.38100 28 ft 4 kts 213°
2026-05-08 05:07 25.24863 55.38085 30 ft 4 kts 214°
2026-05-08 05:07 25.24827 55.38056 32 ft 9 kts 229°
2026-05-08 05:07 25.24836 55.37971 32 ft 8 kts 304°
2026-05-08 05:07 25.24838 55.37969 32 ft 0 kts 303°
2026-05-08 05:08 25.24866 55.37922 32 ft 28 kts 302°
2026-05-08 05:08 25.25086 55.37518 34 ft 93 kts 302°
2026-05-08 05:09 25.25530 55.36723 31 ft 150 kts 301°
2026-05-08 05:09 25.26163 55.35579 66 ft 194 kts 300°
2026-05-08 05:09 25.26875 55.34286 704 ft 196 kts 298°
2026-05-08 05:09 25.27562 55.33031 1616 ft 190 kts 300°
2026-05-08 05:10 25.28267 55.31772 2268 ft 195 kts 301°
2026-05-08 05:10 25.29433 55.28900 3065 ft 222 kts 269°
2026-05-08 05:10 25.29010 55.27255 3547 ft 229 kts 240°
2026-05-08 05:11 25.28112 55.25814 4112 ft 232 kts 237°
2026-05-08 05:11 25.27293 55.24279 4761 ft 231 kts 245°
2026-05-08 05:11 25.26611 55.22680 5353 ft 234 kts 247°
2026-05-08 05:11 25.25933 55.21033 5935 ft 238 kts 246°
2026-05-08 05:12 25.25240 55.19353 6471 ft 243 kts 246°
2026-05-08 05:12 25.24447 55.17660 6952 ft 252 kts 236°
2026-05-08 05:12 25.23163 55.16327 7433 ft 260 kts 209°
2026-05-08 05:12 25.21288 55.15883 7860 ft 274 kts 175°
2026-05-08 05:13 25.19492 55.16600 8259 ft 287 kts 146°
2026-05-08 05:13 25.18062 55.18168 8759 ft 294 kts 127°
2026-05-08 05:13 25.17008 55.20047 9421 ft 294 kts 120°
2026-05-08 05:13 25.16052 55.22059 10008 ft 298 kts 118°
2026-05-08 05:14 25.15096 55.24121 10542 ft 301 kts 118°
2026-05-08 05:14 25.14143 55.26144 11292 ft 298 kts 118°
2026-05-08 05:14 25.13175 55.28176 12004 ft 299 kts 119°
2026-05-08 05:14 25.12199 55.30213 12766 ft 298 kts 119°
2026-05-08 05:15 25.11230 55.32230 13562 ft 298 kts 120°
2026-05-08 05:15 25.10345 55.34253 14170 ft 301 kts 116°
2026-05-08 05:15 25.09487 55.36339 14805 ft 304 kts 116°
2026-05-08 05:15 25.08597 55.38486 15311 ft 311 kts 116°
2026-05-08 05:16 25.07690 55.40659 16017 ft 309 kts 116°
2026-05-08 05:16 25.06827 55.42859 16567 ft 316 kts 114°
2026-05-08 05:16 25.05952 55.45142 16837 ft 331 kts 114°
2026-05-08 05:16 25.05026 55.47545 17039 ft 347 kts 114°
2026-05-08 05:17 25.04058 55.50046 17204 ft 362 kts 114°
2026-05-08 05:17 25.03046 55.52659 17284 ft 379 kts 114°
2026-05-08 05:17 25.01992 55.55311 17343 ft 394 kts 118°
2026-05-08 05:17 25.00572 55.57901 17603 ft 399 kts 121°
2026-05-08 05:18 24.99162 55.60498 18392 ft 392 kts 121°
2026-05-08 05:18 24.97756 55.63123 18605 ft 403 kts 121°
2026-05-08 05:18 24.96319 55.65830 18612 ft 414 kts 121°
2026-05-08 05:18 24.94889 55.68531 19460 ft 402 kts 121°
2026-05-08 05:19 24.93318 55.71099 19809 ft 406 kts 127°
2026-05-08 05:19 24.91622 55.73624 20104 ft 409 kts 127°
2026-05-08 05:19 24.89958 55.76136 20725 ft 406 kts 127°
2026-05-08 05:19 24.88303 55.78654 21277 ft 404 kts 127°
2026-05-08 05:20 24.86668 55.81151 21849 ft 402 kts 127°
2026-05-08 05:20 24.85060 55.83611 22257 ft 404 kts 127°
2026-05-08 05:20 24.83391 55.86099 22846 ft 401 kts 128°
2026-05-08 05:20 24.81728 55.88552 23434 ft 398 kts 128°
2026-05-08 05:21 24.80088 55.90978 24001 ft 392 kts 128°
2026-05-08 05:21 24.78462 55.93368 24461 ft 391 kts 131°
2026-05-08 05:21 24.76541 55.95500 24728 ft 393 kts 139°
2026-05-08 05:21 24.74542 55.97543 25180 ft 392 kts 139°
2026-05-08 05:22 24.72536 55.99606 25390 ft 398 kts 139°
2026-05-08 05:22 24.70510 56.01691 25742 ft 399 kts 139°
2026-05-08 05:22 24.68508 56.03752 26113 ft 400 kts 139°
2026-05-08 05:22 24.66457 56.05864 26325 ft 406 kts 139°
2026-05-08 05:23 24.64423 56.07957 26760 ft 403 kts 139°
2026-05-08 05:23 24.62374 56.10065 27101 ft 406 kts 139°
2026-05-08 05:23 24.60291 56.12208 27235 ft 414 kts 139°
2026-05-08 05:23 24.58189 56.14367 27612 ft 413 kts 139°
2026-05-08 05:24 24.56218 56.16686 27914 ft 418 kts 131°
2026-05-08 05:24 24.54353 56.19159 28114 ft 422 kts 133°
2026-05-08 05:24 24.52442 56.21615 28520 ft 421 kts 133°
2026-05-08 05:24 24.50605 56.23954 28806 ft 423 kts 133°
2026-05-08 05:25 24.48661 56.26417 28918 ft 429 kts 133°
2026-05-08 05:25 24.46712 56.28881 29403 ft 425 kts 133°
2026-05-08 05:25 24.44785 56.31313 29646 ft 428 kts 134°
2026-05-08 05:26 24.40828 56.36306 29967 ft 436 kts 134°
2026-05-08 05:26 24.38844 56.38807 30307 ft 434 kts 133°
2026-05-08 05:26 24.36853 56.41317 30439 ft 439 kts 133°
2026-05-08 05:26 24.34867 56.43818 30652 ft 440 kts 133°
2026-05-08 05:27 24.32854 56.46351 30906 ft 440 kts 134°
2026-05-08 05:27 24.30839 56.48887 31117 ft 442 kts 133°
2026-05-08 05:27 24.28978 56.51558 31338 ft 445 kts 127°
2026-05-08 05:27 24.27183 56.54330 31564 ft 446 kts 128°
2026-05-08 05:28 24.26028 56.56089 31680 ft 447 kts 128°
2026-05-08 05:28 24.24130 56.58954 31984 ft 446 kts 128°
2026-05-08 05:28 24.22306 56.61690 32418 ft 442 kts 128°
2026-05-08 05:29 24.18665 56.67135 32452 ft 455 kts 128°
2026-05-08 05:29 24.16829 56.69880 32961 ft 446 kts 128°
2026-05-08 05:29 24.15075 56.72498 33358 ft 444 kts 128°
2026-05-08 05:30 24.11286 56.78151 33357 ft 457 kts 128°
2026-05-08 05:30 24.09410 56.80947 33746 ft 454 kts 128°
2026-05-08 05:30 24.07553 56.83713 33809 ft 458 kts 128°
2026-05-08 05:30 24.05658 56.86536 33940 ft 460 kts 128°
2026-05-08 05:31 24.03777 56.89344 34240 ft 457 kts 128°
2026-05-08 05:31 23.99996 56.94998 34446 ft 462 kts 128°
2026-05-08 05:31 23.98096 56.97836 34716 ft 461 kts 128°
2026-05-08 05:32 23.96199 57.00667 34824 ft 462 kts 128°
2026-05-08 05:32 23.92417 57.06309 34873 ft 468 kts 128°
2026-05-08 05:33 23.88537 57.12091 34835 ft 474 kts 128°
2026-05-08 05:33 23.84750 57.17727 34844 ft 474 kts 128°
2026-05-08 05:34 23.81097 57.23159 34878 ft 475 kts 128°
2026-05-08 05:34 23.77192 57.28961 34951 ft 475 kts 128°
2026-05-08 05:35 23.73284 57.34760 34919 ft 474 kts 128°
2026-05-08 05:35 23.69214 57.40393 34993 ft 472 kts 130°
2026-05-08 05:35 23.67169 57.43209 34889 ft 473 kts 130°
2026-05-08 05:36 23.65135 57.46016 34859 ft 471 kts 130°
2026-05-08 05:36 23.61080 57.51608 34843 ft 472 kts 130°
2026-05-08 05:36 23.59046 57.54412 35068 ft 469 kts 130°
2026-05-08 05:37 23.57013 57.57211 34900 ft 472 kts 130°
2026-05-08 05:37 23.52935 57.62821 34926 ft 473 kts 130°
2026-05-08 05:38 23.48847 57.68438 34901 ft 474 kts 130°
2026-05-08 05:38 23.44790 57.73980 34908 ft 474 kts 130°
2026-05-08 05:39 23.40683 57.79588 34902 ft 473 kts 130°
2026-05-08 05:39 23.36642 57.85099 34900 ft 473 kts 130°
2026-05-08 05:40 23.32549 57.90675 34863 ft 473 kts 130°
2026-05-08 05:40 23.28438 57.96270 34872 ft 474 kts 130°
2026-05-08 05:41 23.24378 58.01926 34852 ft 475 kts 125°
2026-05-08 05:41 23.22610 58.04798 34971 ft 473 kts 126°
2026-05-08 05:41 23.20751 58.07766 34890 ft 474 kts 126°
2026-05-08 05:42 23.17007 58.13666 34918 ft 475 kts 126°
2026-05-08 05:42 23.13253 58.19557 34911 ft 474 kts 126°
2026-05-08 05:43 23.09491 58.25453 34882 ft 474 kts 126°
2026-05-08 05:43 23.05799 58.31234 34869 ft 474 kts 126°
2026-05-08 05:44 23.02605 58.37471 34823 ft 474 kts 105°
2026-05-08 05:44 23.02124 58.41004 34918 ft 476 kts 92°
2026-05-08 05:44 23.02130 58.44614 34858 ft 480 kts 90°
2026-05-08 05:45 23.02283 58.51875 34907 ft 482 kts 89°
2026-05-08 05:45 23.02510 58.59138 34869 ft 481 kts 89°
2026-05-08 05:46 23.02748 58.66389 34868 ft 481 kts 89°
2026-05-08 05:46 23.02982 58.73608 34844 ft 481 kts 89°
2026-05-08 05:47 23.03215 58.80872 34851 ft 481 kts 89°
2026-05-08 05:47 23.03444 58.88131 34836 ft 481 kts 89°
2026-05-08 05:48 23.03670 58.95366 34827 ft 481 kts 89°
2026-05-08 05:48 23.03889 59.02623 34835 ft 481 kts 89°
2026-05-08 05:49 23.04105 59.09892 34818 ft 481 kts 89°
2026-05-08 05:49 23.04317 59.17146 34820 ft 480 kts 89°
2026-05-08 05:50 23.04526 59.24398 34809 ft 481 kts 89°
2026-05-08 05:50 23.04732 59.31670 34807 ft 481 kts 89°